This is the latest recevied weather packets stored in our database for station/object K2EJ-13. If no packets are shown the sender has not sent any weather packets the latest 10 day(s).
| Time | Temp. | Humidity | Pressure | Rain* | Wind** | Luminosity | Snow |
|---|---|---|---|---|---|---|---|
| 1777568716 | 20° C | 54% | 1007.4 hPa | 0 mm | - | - | - |
| 1777566916 | 19.44° C | 54% | 1007.5 hPa | 0 mm | - | - | - |
| 1777565115 | 18.89° C | 57% | 1007.8 hPa | 0 mm | - | - | - |
| 1777558516 | 17.78° C | 71% | 1008.5 hPa | 0 mm | - | - | - |
| 1777551916 | 14.44° C | 94% | 1007.5 hPa | 0 mm | - | - | - |
| 1777545316 | 11.67° C | 100% | 1007.2 hPa | 0 mm | - | - | - |
| 1777544116 | 11.11° C | 100% | 1007.2 hPa | 0 mm | - | - | - |
| 1777541716 | 11.11° C | 100% | 1007.3 hPa | 0 mm | - | - | - |
| 1777530316 | 11.11° C | 100% | 1006.8 hPa | 0 mm | - | - | - |
| 1777529716 | 11.11° C | 100% | 1006.9 hPa | 0 mm | - | - | - |
| 1777526715 | 11.11° C | 100% | 1007.5 hPa | 0 mm | - | - | - |
| 1777520715 | 11.11° C | 100% | 1008.1 hPa | 0 mm | - | - | - |
| 1777518936 | 11.67° C | 100% | 1007.6 hPa | 0 mm | - | - | - |
| 1777517716 | 11.67° C | 100% | 1007.6 hPa | 0 mm | - | - | - |
| 1777513536 | 12.78° C | 100% | 1008.3 hPa | 0 mm | - | - | - |
| 1777509915 | 12.78° C | 99% | 1007.8 hPa | 0 mm | - | - | - |
| 1777507515 | 12.78° C | 99% | 1007.1 hPa | 0 mm | - | - | - |
| 1777506915 | 13.33° C | 99% | 1007.2 hPa | 0 mm | - | - | - |
| 1777505116 | 13.89° C | 98% | 1008.1 hPa | 0 mm | - | - | - |
| 1777499135 | 15° C | 91% | 1008.5 hPa | 0 mm | - | - | - |
| 1777498516 | 15.56° C | 91% | 1008.6 hPa | 0 mm | - | - | - |
| 1777495515 | 16.67° C | 77% | 1008.6 hPa | 0 mm | - | - | - |
| 1777491915 | 16.67° C | 63% | 1009.4 hPa | 0 mm | - | - | - |
| 1777491316 | 16.67° C | 62% | 1009.5 hPa | 0 mm | - | - | - |
| 1777490716 | 16.67° C | 61% | 1009.8 hPa | 0 mm | - | - | - |
* Rain latest hour (hover to see other rain measurements)
** Current wind speed in m/s (hover to see current wind gust speed)